PLATFORM,ARGOS_ID,DATE (YYYY/MM/DD HH:MI:SS),LATITUDE (degree_north),LONGITUDE (degree_east),TEMP LEVEL0 (degree_Celsius),EWCT LEVEL1 (meter/second),NSCT LEVEL1 (meter/second),QC,SVP_RCBN_Number,SVP_GNRL_ImmPercent,SVP_GNRL_BattVolt
62966,60640,2005/11/30 16:00:00,43.1060,5.8860,-5,,,00144499,1,0,0
62966,60640,2005/11/30 18:00:00,43.1064,5.8852,-5,-0.009358,0.006332,00144400,3,0,0
62966,60640,2005/11/30 20:03:21,43.1064,5.8843,3.48,-0.009543,-0.00015,00144400,3,0,12
62966,60640,2005/11/30 21:00:11,43.1062,5.8837,2.76,-0.014284,-0.006522,00144400,1,0,12
62966,60640,2005/11/30 22:00:00,43.1070,5.8840,2.04,0.006786,0.024786,00144400,1,0,12
62966,60640,2005/11/30 23:00:41,43.1063,5.8842,1.16,0.004459,-0.021378,00144400,1,0,12
62966,60640,2005/12/01 00:00:23,43.1060,5.8841,0.52,-0.002266,-0.009313,00144400,1,0,12
62966,60640,2005/12/01 01:00:18,43.1060,5.8839,0.44,-0.004516,0,00144400,4,0,12
62966,60640,2005/12/01 02:00:41,43.1064,5.8837,0.44,-0.004481,0.012277,00144400,5,0,12
62966,60640,2005/12/01 03:00:12,43.1063,5.8842,-0.2,0.011367,-0.003114,00144400,4,0,12
62966,60640,2005/12/01 04:00:41,43.1062,5.8840,-0.44,-0.004474,-0.003064,00144400,3,0,12
62966,60640,2005/12/01 06:00:10,43.1064,5.8844,-0.6,0.00453,0.003102,00144400,1,0,12
62966,60640,2005/12/01 07:00:00,43.1057,5.8843,-0.52,-0.002714,-0.021062,00144400,1,0,12
62966,60640,2005/12/01 08:00:41,43.1063,5.8837,0.76,-0.012932,0.017713,00144400,6,0,12
62966,60640,2005/12/01 09:00:00,43.1051,5.8851,4.6,0.03125,-0.038429,00144400,3,0,12
62966,60640,2005/12/01 10:00:37,43.1063,5.8841,29.16,-0.021652,0.037605,00144400,6,0,12
62966,60640,2005/12/01 11:00:11,43.1063,5.8842,35.88,0.002271,0,00144400,4,0,12
62966,60640,2005/12/01 12:00:16,43.1070,5.8841,30.52,-0.002252,0.021591,00144400,1,0,12
62966,60640,2005/12/01 13:00:41,43.1063,5.8841,32.28,0,-0.021472,00144400,1,0,12
62966,60640,2005/12/01 14:00:24,43.1064,5.8841,27.16,0,0.003103,00144400,3,0,12
62966,60640,2005/12/01 15:00:40,43.1063,5.8842,20.36,0.002245,-0.003075,00144400,1,0,12
62966,60640,2005/12/01 16:00:11,43.1063,5.8842,12.6,0,0,00144400,4,0,12
62966,60640,2005/12/01 17:00:07,43.1079,5.8827,7.16,-0.033863,0.049475,00144400,1,0,12
62966,60640,2005/12/01 18:00:41,43.1065,5.8843,5.08,0.035743,-0.042838,00144400,3,0,12
62966,60640,2005/12/01 19:00:11,43.1066,5.8845,4.68,0.004548,0.003115,00144400,1,0,12
62966,60640,2005/12/01 20:00:41,43.1063,5.8838,6.12,-0.015655,-0.00919,00144400,1,0,12
62966,60640,2005/12/01 21:00:00,43.1080,5.8830,7.56,-0.018248,0.053114,00144400,3,0,12
62966,60640,2005/12/01 22:00:11,43.1061,5.8841,8.68,0.02473,-0.058507,00144400,3,0,12
62966,60640,2005/12/01 23:00:41,43.1064,5.8842,9.64,0.002236,0.00919,00144400,1,0,12
62966,60640,2005/12/02 00:00:21,43.1061,5.8842,10.28,0,-0.009318,00144400,3,0,12
62966,60640,2005/12/02 01:00:11,43.1062,5.8842,10.52,0,0.003097,00144400,3,0,12
62966,60640,2005/12/02 02:01:06,43.1063,5.8841,10.68,-0.002221,0.003042,00144400,5,0,12
62966,60640,2005/12/02 03:00:11,43.1067,5.8842,9.8,0.00229,0.012547,00144400,1,0,12
62966,60640,2005/12/02 04:00:43,43.1063,5.8840,10.36,-0.00447,-0.012246,00144400,3,0,12
62966,60640,2005/12/02 05:00:16,43.1062,5.8841,10.2,0.002272,-0.003112,00144400,6,0,12
62966,60640,2005/12/02 06:00:41,43.1062,5.8842,10.36,0.00224,0,00144400,4,0,12
62966,60640,2005/12/02 07:01:05,43.1062,5.8839,10.84,-0.00672,0,00144400,4,0,12
62966,60640,2005/12/02 08:00:11,43.1064,5.8845,11.4,0.013736,0.006272,00144400,6,0,12
62966,60640,2005/12/02 09:00:12,43.1059,5.8838,12.04,-0.015781,-0.015439,00144400,1,0,12
62966,60640,2005/12/02 10:00:41,43.1063,5.8843,14.6,0.011185,0.012256,00144400,3,0,12
62966,60640,2005/12/02 12:00:12,43.1065,5.8840,12.84,-0.003396,0.003101,00144400,3,0,12
62966,60640,2005/12/02 13:00:55,43.1064,5.8847,12.92,0.015599,-0.003052,00144400,3,0,12
62966,60640,2005/12/02 14:01:04,43.1062,5.8842,12.52,-0.011247,-0.006162,00144400,5,0,12
62966,60640,2005/12/02 15:00:09,43.1062,5.8841,12.6,-0.00229,0,00144400,4,0,12
62966,60640,2005/12/02 16:00:41,43.1062,5.8841,12.44,0,0,00144400,1,0,12
62966,60640,2005/12/02 17:00:11,43.1066,5.8840,13.08,-0.002274,0.012459,00144400,1,0,12
62966,60640,2005/12/02 18:00:11,43.1065,5.8842,13.48,0.00451,-0.003089,00144400,1,0,12
62966,60640,2005/12/02 19:00:42,43.1062,5.8842,14.44,0,-0.009187,00144400,1,0,12
62966,60640,2005/12/02 20:00:49,43.1064,5.8841,14.36,-0.002251,0.006166,00144400,1,0,12
62966,60640,2005/12/02 21:00:59,43.1064,5.8842,13.88,0.002249,0,00144400,1,0,12
62966,60640,2005/12/02 22:00:18,43.1062,5.8842,13.88,0,-0.006249,00144400,1,0,12
62966,60640,2005/12/02 23:00:11,43.1062,5.8842,13.32,0,0,00144400,1,0,12
62966,60640,2005/12/03 00:00:41,43.1064,5.8842,12.6,0,0.006126,00144400,5,0,12
62966,60640,2005/12/03 01:00:23,43.1055,5.8840,12.92,-0.004533,-0.027938,00144400,5,0,12
62966,60640,2005/12/03 02:00:41,43.1063,5.8841,12.52,0.002244,0.024587,00144400,4,0,12
62966,60640,2005/12/03 03:00:11,43.1065,5.8844,11.8,0.006822,0.006229,00144400,3,0,12
62966,60640,2005/12/03 04:00:12,43.1060,5.8838,9.72,-0.013527,-0.015439,00144400,1,0,12
62966,60640,2005/12/03 05:00:40,43.1061,5.8845,8.92,0.015664,0.003065,00144400,5,0,12
62966,60640,2005/12/03 06:00:37,43.1062,5.8842,7.88,-0.006771,0.003091,00144400,1,0,12
62966,60640,2005/12/03 07:00:00,43.1060,5.8847,7.24,0.012532,-0.006242,00144400,3,0,12
62966,60640,2005/12/03 08:00:16,43.1060,5.8838,8.52,-0.021328,0,00144400,3,0,12
62966,60640,2005/12/03 09:00:41,43.1065,5.8840,15.56,0.004479,0.015337,00144400,9,0,12
62966,60640,2005/12/03 10:00:12,43.1057,5.8839,21.88,-0.002273,-0.024911,00144400,4,0,12
62966,60640,2005/12/03 11:00:41,43.1064,5.8843,19.16,0.008948,0.021448,00144400,5,0,12
62966,60640,2005/12/03 12:00:14,43.1064,5.8839,18.28,-0.009088,0,00144400,3,0,12
62966,60640,2005/12/03 13:00:45,43.1064,5.8844,26.04,0.011179,0,00144400,1,0,12
62966,60640,2005/12/03 14:00:16,43.1063,5.8842,23.24,-0.004547,-0.003114,00144400,3,0,12
62966,60640,2005/12/03 15:00:41,43.1063,5.8843,17.4,0.00224,0,00144400,4,0,12
62966,60640,2005/12/03 16:00:37,43.1064,5.8842,12.2,-0.002258,0.003092,00144400,5,0,12
62966,60640,2005/12/03 17:00:11,43.1059,5.8837,10.76,-0.011357,-0.015556,00144400,1,0,12
62966,60640,2005/12/03 18:00:41,43.1062,5.8843,10.6,0.013419,0.00919,00144400,3,0,12
62966,60640,2005/12/03 19:00:06,43.1064,5.8842,9.8,-0.002277,0.006238,00144400,1,0,12
62966,60640,2005/12/03 20:00:22,43.1064,5.8840,9.64,-0.00449,0,00144400,1,0,12
62966,60640,2005/12/03 21:00:41,43.1063,5.8842,9.32,0.004486,-0.003073,00144400,1,0,12
62966,60640,2005/12/03 22:00:09,43.1064,5.8843,9.16,0.002275,0.003116,00144400,1,0,12
62966,60640,2005/12/03 23:00:38,43.1065,5.8838,8.84,-0.011185,0.003064,00144400,1,0,12
62966,60640,2005/12/04 00:00:41,43.1064,5.8842,7.32,0.009013,-0.003086,00144400,7,0,12
62966,60640,2005/12/04 01:00:54,43.1064,5.8842,7.24,0,0,00144400,3,0,12
62966,60640,2005/12/04 02:01:18,43.1064,5.8843,6.36,0.00224,0,00144400,3,0,12
62966,60640,2005/12/04 03:00:12,43.1066,5.8843,6.52,0,0.006293,00144400,3,0,12
62966,60640,2005/12/04 04:00:11,43.1062,5.8842,6.68,-0.002256,-0.012358,00144400,1,0,12
62966,60640,2005/12/04 05:00:38,43.1063,5.8842,5.32,0,0.003066,00144400,3,0,12
62966,60640,2005/12/04 06:00:11,43.1063,5.8842,5.32,0,0,00144400,4,0,12
62966,60640,2005/12/04 07:00:41,43.1064,5.8843,5.16,0.002236,0.003063,00144400,5,0,12
62966,60640,2005/12/04 08:00:12,43.1064,5.8841,8.44,-0.004547,0,00144400,3,0,12
62966,60640,2005/12/04 09:00:11,43.1064,5.8843,18.52,0.004511,0,00144400,6,0,12
62966,60640,2005/12/04 10:00:41,43.1065,5.8843,24.84,0,0.003063,00144400,4,0,12
62966,60640,2005/12/04 11:00:41,43.1060,5.8842,35.88,-0.002255,-0.015444,00144400,3,0,12
62966,60640,2005/12/04 12:00:12,43.1063,5.8842,26.36,0,0.009341,00144400,1,0,12
62966,60640,2005/12/04 13:00:07,43.1067,5.8844,22.52,0.004516,0.012372,00144400,4,0,12
62966,60640,2005/12/04 14:00:58,43.1063,5.8843,21.16,-0.002224,-0.012182,00144400,4,0,12
62966,60640,2005/12/04 15:00:08,43.1053,5.8845,17.56,0.004574,-0.031323,00144400,3,0,12
62966,60640,2005/12/04 16:00:12,43.1064,5.8841,14.6,-0.00901,0.033939,00144400,3,0,12
62966,60640,2005/12/04 17:00:41,43.1063,5.8837,14.84,-0.008948,-0.003064,00144400,1,0,12
62966,60640,2005/12/04 18:00:12,43.1052,5.8845,14.36,0.018187,-0.034252,00144400,1,0,12
62966,60640,2005/12/04 19:01:05,43.1064,5.8843,14.2,-0.004445,0.036527,00144400,1,0,12
62966,60640,2005/12/04 20:01:32,43.1068,5.8840,12.92,-0.006715,0.012263,00144400,1,0,12
62966,60640,2005/12/04 21:00:17,43.1064,5.8843,12.6,0.006909,-0.012618,00144400,1,0,12
62966,60640,2005/12/04 22:01:04,43.1062,5.8840,11.96,-0.006678,-0.006098,00144400,1,0,12
62966,60640,2005/12/04 23:00:36,43.1064,5.8838,12.44,-0.004545,0.006226,00144400,5,0,12
62966,60640,2005/12/05 00:00:11,43.1062,5.8844,11.96,0.013625,-0.006221,00144400,3,0,12
62966,60640,2005/12/05 01:00:41,43.1062,5.8843,11.48,-0.002236,0,00144400,4,0,12
62966,60640,2005/12/05 02:00:55,43.1064,5.8838,11.32,-0.011232,0.006154,00144400,1,0,12
62966,60640,2005/12/05 03:00:41,43.1063,5.8842,10.76,0.009055,-0.003101,00144400,5,0,12
62966,60640,2005/12/05 04:00:40,43.1063,5.8837,10.28,-0.011278,0,00144400,4,0,12
62966,60640,2005/12/05 05:00:08,43.1061,5.8843,9.4,0.013652,-0.006233,00144400,4,0,12
62966,60640,2005/12/05 06:00:32,43.1064,5.8841,8.2,-0.00448,0.009205,00144400,3,0,12
62966,60640,2005/12/05 07:00:41,43.1063,5.8843,9.4,0.004499,-0.003081,00144400,1,0,12
62966,60640,2005/12/05 08:00:12,43.1062,5.8843,10.12,0,-0.003114,00144400,1,0,12
62966,60640,2005/12/05 09:00:41,43.1063,5.8843,14.44,0,0.003064,00144400,4,0,12
62966,60640,2005/12/05 10:01:10,43.1063,5.8838,13.24,-0.011185,0,00144400,6,0,12
62966,60640,2005/12/05 11:00:36,43.1063,5.8838,14.2,0,0,00144400,1,0,12
62966,60640,2005/12/05 12:00:15,43.1066,5.8843,21.56,0.011341,0.009321,00144400,1,0,12
62966,60640,2005/12/05 13:00:41,43.1064,5.8842,17.08,-0.002239,-0.006133,00144400,1,0,12
62966,60640,2005/12/05 15:00:12,43.1064,5.8842,12.68,0,0,00144400,1,0,12
62966,60640,2005/12/05 18:00:41,43.1056,5.8844,9.72,0.001499,-0.008215,00144400,1,0,12
62966,60640,2005/12/05 20:00:44,43.1065,5.8845,9,0.001127,0.013894,00144400,1,0,12
62966,60640,2005/12/05 21:00:33,43.1062,5.8842,8.84,-0.006786,-0.009295,00144400,1,0,12
62966,60640,2005/12/05 22:00:41,43.1063,5.8842,8.6,0,0.003082,00144400,1,0,12
62966,60640,2005/12/06 00:00:41,43.1064,5.8841,7.96,-0.001128,0.001544,00144400,1,0,12
62966,60640,2005/12/06 02:02:38,43.1063,5.8842,7.8,0.001109,-0.00152,00144400,1,0,12
62966,60640,2005/12/06 03:00:08,43.1062,5.8842,7.88,0,-0.003223,00144400,1,0,12
62966,60640,2005/12/06 04:00:41,43.1063,5.8843,7.4,0.002235,0.003061,00144400,1,0,12
62966,60640,2005/12/06 06:00:11,43.1063,5.8841,6.76,-0.002264,0,00144400,1,0,12
62966,60640,2005/12/06 09:00:41,43.1063,5.8844,17.72,0.002249,0,00144400,1,0,12
62966,60640,2005/12/06 10:00:11,43.1064,5.8843,21.96,-0.002274,0.003115,00144400,1,0,12
62966,60640,2005/12/06 12:00:41,43.1063,5.8838,21.88,-0.005614,-0.001538,00144400,3,0,12
62966,60640,2005/12/06 16:00:41,43.1063,5.8842,10.36,0.002255,0,00144400,1,0,12
62966,60640,2005/12/06 19:00:41,43.1063,5.8842,8.44,0,0,00144400,1,0,12
62966,60640,2005/12/06 20:00:41,43.1063,5.8841,8.44,-0.002255,0,00144400,1,0,12
62966,60640,2005/12/07 00:00:40,43.1063,5.8843,7.16,0.001128,0,00144400,1,0,12
62966,60640,2005/12/07 04:00:11,43.1063,5.8842,7.56,-0.000565,0,00144400,1,0,12
62966,60640,2005/12/07 06:00:00,43.1060,5.8862,7.56,0.022698,-0.003867,00144400,1,0,12
62966,60640,2005/12/07 07:00:41,43.1063,5.8841,7,-0.047046,0.007635,00144400,1,0,12
62966,60640,2005/12/08 05:00:00,43.0850,4.9630,9.48,-0.944804,-0.02992,00144400,1,0,12
62966,60640,2005/12/08 06:04:15,43.0010,5.2119,10.04,5.24697,-2.42292,00144400,1,0,12
62966,60640,2005/12/08 08:01:38,42.9992,4.9953,12.36,-2.50099,-0.028418,00144400,1,0,12
62966,60640,2005/12/08 11:01:37,42.9010,5.0791,11.8,0.631576,-1.01114,00144400,1,0,12
62966,60640,2005/12/08 13:01:30,43.0921,4.9891,10.76,-1.01758,2.95417,00144400,1,0,12
62966,60640,2005/12/08 19:00:00,42.9240,5.7760,9.88,2.97464,-0.868985,00144400,1,0,12
62966,60640,2005/12/08 21:01:07,42.9394,5.7482,9.32,-0.311447,0.235641,00144400,1,0,12
62966,60640,2005/12/09 00:00:41,42.9185,5.7912,15.32,0.324942,-0.215702,00111400,1,7.93651,12
62966,60640,2005/12/09 02:00:12,42.9206,5.7762,15.4,-0.17033,0.032563,00111400,1,9.52381,12
62966,60640,2005/12/09 05:00:11,42.9244,5.7608,15.4,-0.116117,0.039128,00111100,1,38.0952,12
62966,60640,2005/12/09 06:00:12,42.9257,5.7533,15.4,-0.169582,0.040143,00111100,1,31.746,12
62966,60640,2005/12/09 13:00:11,42.9219,5.7017,15.48,-0.166731,-0.016768,00111100,1,9.52381,12
62966,60640,2005/12/09 14:00:41,42.9220,5.6922,15.48,-0.213098,0.003063,00111100,1,3.1746,12
62966,60640,2005/12/09 15:00:16,42.9224,5.6830,15.4,-0.209543,0.012441,00111100,1,7.93651,12
62966,60640,2005/12/09 16:00:12,42.9243,5.6716,15.4,-0.25813,0.058751,00111100,1,1.5873,12
62966,60640,2005/12/09 19:00:12,42.9353,5.6458,15.4,-0.194493,0.113254,00111100,1,1.5873,12
62966,60640,2005/12/09 21:00:11,42.9402,5.6365,15.4,-0.105163,0.075685,00111100,1,0,12
62966,60640,2005/12/09 23:00:41,42.9424,5.6265,15.4,-0.112587,0.033835,00111100,3,1.5873,12
62966,60640,2005/12/10 00:00:11,42.9418,5.6213,15.4,-0.118565,-0.018688,00111100,1,1.5873,12
62966,60640,2005/12/10 05:00:11,42.9421,5.5864,15.32,-0.157825,0.001853,00111100,1,1.5873,12
62966,60640,2005/12/10 06:00:41,42.9429,5.5789,15.32,-0.16818,0.024506,00111100,4,1.5873,12
62966,60640,2005/12/10 09:00:11,42.9469,5.5544,15.32,-0.185162,0.041298,00111100,1,4.7619,12
62966,60640,2005/12/10 10:00:41,42.9502,5.5464,15.32,-0.179374,0.101086,00111100,1,1.5873,12
62966,60640,2005/12/10 11:00:11,42.9533,5.5398,15.4,-0.150463,0.096556,00111100,3,1.5873,12
62966,60640,2005/12/10 12:00:13,42.9570,5.5349,15.4,-0.110709,0.11422,00111100,1,0,12
62966,60640,2005/12/10 17:00:12,42.9685,5.5104,15.32,-0.110763,0.071045,00111100,1,0,12
62966,60640,2005/12/10 18:00:17,42.9703,5.5060,15.4,-0.099306,0.05552,00111100,1,1.5873,12
62966,60640,2005/12/10 21:00:12,42.9733,5.4912,15.4,-0.111545,0.030902,00111100,1,0,12
62966,60640,2005/12/10 23:00:11,42.9743,5.4801,15.4,-0.125444,0.015446,00111100,1,0,12
62966,60640,2005/12/11 00:00:40,42.9747,5.4745,15.4,-0.125543,0.012256,00111100,4,0,12
62966,60640,2005/12/11 01:00:11,42.9763,5.4680,15.48,-0.148084,0.049821,00111100,1,0,12
62966,60640,2005/12/11 02:00:12,42.9776,5.4610,15.48,-0.158143,0.040143,00111100,1,0,12
62966,60640,2005/12/11 03:00:11,42.9791,5.4538,15.4,-0.162748,0.046344,00111100,6,0,12
62966,60640,2005/12/11 04:00:41,42.9814,5.4467,15.4,-0.159112,0.070454,00111100,1,0,12
62966,60640,2005/12/11 06:00:11,42.9855,5.4348,15.32,-0.135007,0.063584,00111100,3,0,12
62966,60640,2005/12/11 07:00:41,42.9875,5.4287,15.32,-0.136688,0.061264,00111100,1,0,12
62966,60640,2005/12/11 08:00:12,42.9896,5.4220,15.32,-0.152608,0.06539,00111100,1,0,12
62966,60640,2005/12/11 09:00:12,42.9911,5.4159,15.32,-0.137819,0.046331,00111100,1,0,12
62966,60640,2005/12/11 10:00:41,42.9922,5.4101,15.32,-0.129991,0.033705,00111100,1,0,12
62966,60640,2005/12/11 12:00:17,42.9917,5.3982,15.32,-0.134876,-0.007748,00111100,4,9.52381,12
62966,60640,2005/12/11 13:00:12,42.9901,5.3924,15.32,-0.131222,-0.049489,00111100,3,9.52381,12
62966,60640,2005/12/11 15:00:11,42.9881,5.3767,15.32,-0.177385,-0.030892,00111100,1,3.1746,12
62966,60640,2005/12/11 16:00:17,42.9873,5.3684,15.32,-0.18722,-0.024669,00111100,3,3.1746,12
62966,60640,2005/12/11 17:00:12,42.9870,5.3600,15.32,-0.190057,-0.009279,00111100,1,0,12
62966,60640,2005/12/11 18:00:41,42.9864,5.3519,15.32,-0.181553,-0.018384,00111100,4,0,12
62966,60640,2005/12/11 22:00:40,42.9816,5.3190,15.32,-0.185861,-0.037068,00111100,1,3.1746,12
62966,60640,2005/12/11 23:00:11,42.9811,5.3114,15.32,-0.173128,-0.015569,00111100,1,0,12
62966,60640,2005/12/12 01:00:29,42.9792,5.2982,15.32,-0.148768,-0.02927,00111100,1,0,12
62966,60640,2005/12/12 03:00:12,42.9767,5.2875,15.32,-0.121184,-0.038701,00111100,5,0,12
62966,60640,2005/12/12 05:00:12,42.9717,5.2771,15.32,-0.117516,-0.077219,00111100,3,0,12
62966,60640,2005/12/12 07:00:11,42.9661,5.2642,15.24,-0.145797,-0.086497,00111100,1,0,12
62966,60640,2005/12/12 08:00:12,42.9644,5.2565,15.16,-0.17399,-0.052494,00111100,1,0,12
62966,60640,2005/12/12 09:00:41,42.9636,5.2489,15.16,-0.170409,-0.024513,00111100,1,0,12
62966,60640,2005/12/12 11:00:11,42.9616,5.2370,15.16,-0.135053,-0.031017,00111100,3,3.1746,12
62966,60640,2005/12/12 14:00:41,42.9582,5.2213,15.08,-0.117969,-0.034909,00111100,1,1.5873,12
62966,60640,2005/12/12 16:00:13,42.9557,5.2109,15.08,-0.118007,-0.03876,00111100,4,4.7619,12
62966,60640,2005/12/12 17:00:17,42.9543,5.2053,15.16,-0.126454,-0.043194,00111100,1,0,12
62966,60640,2005/12/12 18:00:41,42.9532,5.1995,15.16,-0.13025,-0.033751,00111100,1,0,12
62966,60640,2005/12/12 19:00:11,42.9526,5.1952,15.16,-0.098027,-0.018688,00111100,3,0,12
62966,60640,2005/12/12 21:00:40,42.9510,5.1881,15.16,-0.079934,-0.024611,00111100,6,0,12
62966,60640,2005/12/13 07:00:41,42.9403,5.1432,15,-0.101514,-0.033049,00111100,1,4.7619,12
62966,60640,2005/12/13 11:00:12,42.9419,5.1221,15.08,-0.119515,0.01238,00111100,1,6.34921,12
62966,60640,2005/12/13 13:00:19,42.9417,5.1134,15.08,-0.098263,-0.003086,00111100,3,14.2857,12
62966,60640,2005/12/13 14:00:40,42.9414,5.1090,15.08,-0.098912,-0.009213,00111100,1,14.2857,12
62966,60640,2005/12/13 15:00:13,42.9408,5.1048,15,-0.095685,-0.018673,00111100,1,19.0476,12
62966,60640,2005/12/13 16:00:11,42.9397,5.1006,15,-0.095022,-0.033995,00111100,1,23.8095,12
62966,60640,2005/12/13 18:00:42,42.9351,5.0915,14.92,-0.102447,-0.070737,00111100,1,82.5397,12
62966,60640,2005/12/13 19:00:10,42.9325,5.0855,14.92,-0.136901,-0.081028,00111100,1,93.6508,12
62966,60640,2005/12/13 23:00:37,42.9207,5.0545,14.68,-0.174951,-0.090948,00111100,1,95.2381,12
62966,60640,2005/12/14 00:00:11,42.9180,5.0455,14.68,-0.205055,-0.084003,00111100,1,96.8254,12
62966,60640,2005/12/14 04:00:59,42.9056,5.0090,14.6,-0.205741,-0.095433,00111100,1,98.4127,12
62966,60640,2005/12/14 05:00:13,42.9023,4.9989,14.6,-0.23147,-0.103248,00111100,1,98.4127,12
62966,60640,2005/12/14 06:00:42,42.8960,5.0006,14.52,0.038158,-0.193036,00111100,1,98.4127,12
62966,60640,2005/12/14 07:00:41,42.8931,4.9846,14.52,-0.362155,-0.089599,00111100,1,100,12
62966,60640,2005/12/14 08:00:26,42.8882,4.9755,14.44,-0.206793,-0.151982,00111100,1,100,12
62966,60640,2005/12/14 20:00:12,42.8233,4.8575,14.12,-0.222725,-0.167104,00111100,1,100,12
62966,60640,2005/12/14 21:00:26,42.8178,4.8488,14.12,-0.19634,-0.169223,00111100,1,100,12
62966,60640,2005/12/15 06:00:41,42.7624,4.7586,13.88,-0.227066,-0.190042,00111100,1,98.4127,12
62966,60640,2005/12/15 07:00:29,42.7577,4.7494,13.88,-0.209333,-0.145657,00111100,1,100,12
62966,60640,2005/12/15 08:00:41,42.7538,4.7406,13.88,-0.198915,-0.120061,00111100,1,100,12
62966,60640,2005/12/15 09:00:15,42.7505,4.7339,13.88,-0.153065,-0.10267,00111100,1,100,12
62966,60640,2005/12/15 11:00:42,42.7398,4.7234,13.88,-0.118642,-0.164631,00111100,3,98.4127,12
62966,60640,2005/12/15 15:00:41,42.7091,4.7003,13.88,-0.131048,-0.237078,00111100,1,98.4127,12
62966,60640,2005/12/15 16:00:13,42.7013,4.6921,13.88,-0.187581,-0.242811,00111100,1,96.8254,12
62966,60640,2005/12/15 18:00:12,42.6870,4.6744,13.8,-0.200939,-0.220876,00111100,3,98.4127,12
62966,60640,2005/12/15 19:00:41,42.6815,4.6642,13.8,-0.229745,-0.168524,00111100,3,98.4127,12
62966,60640,2005/12/15 20:01:11,42.6772,4.6538,13.8,-0.234203,-0.131719,00111100,1,98.4127,12
62966,60640,2005/12/15 21:00:12,42.6743,4.6444,13.8,-0.217017,-0.091066,00111100,1,96.8254,12
62966,60640,2005/12/15 22:00:12,42.6724,4.6370,13.8,-0.16805,-0.058686,00111100,3,100,12
62966,60640,2005/12/16 00:00:41,42.6661,4.6237,13.72,-0.150422,-0.096905,00111100,1,100,12
62966,60640,2005/12/16 06:00:11,42.6260,4.6019,13.64,-0.082662,-0.206718,00111100,3,100,12
62966,60640,2005/12/16 07:00:46,42.6160,4.5960,13.64,-0.132807,-0.305901,00111100,1,100,12
62966,60640,2005/12/16 09:01:11,42.5964,4.5755,13.64,-0.232216,-0.30165,00111100,1,100,12
62966,60640,2005/12/16 11:00:20,42.5778,4.5515,13.64,-0.274837,-0.289303,00111100,4,98.4127,12
62966,60640,2005/12/16 12:00:41,42.5703,4.5367,13.64,-0.334683,-0.230313,00111100,1,100,12
62966,60640,2005/12/16 13:00:20,42.5653,4.5270,13.64,-0.22195,-0.155344,00111100,1,98.4127,12
62966,60640,2005/12/16 14:00:11,42.5607,4.5180,13.64,-0.20526,-0.142439,00111100,1,100,12
62966,60640,2005/12/16 15:01:06,42.5557,4.5096,13.64,-0.188236,-0.152113,00111100,1,100,12
62966,60640,2005/12/17 00:00:42,42.5011,4.4589,13.48,-0.128323,-0.187523,00111100,4,100,12
62966,60640,2005/12/17 03:01:41,42.4780,4.4304,13.48,-0.215201,-0.236541,00111100,1,100,12
62966,60640,2005/12/17 05:00:28,42.4661,4.4098,13.48,-0.237067,-0.185663,00111100,3,98.4127,12
62966,60640,2005/12/17 07:00:20,42.4570,4.3892,13.4,-0.234963,-0.140694,00111100,1,100,12
62966,60640,2005/12/17 08:00:49,42.4523,4.3776,13.4,-0.262242,-0.144011,00111100,1,100,12
62966,60640,2005/12/17 09:00:11,42.4495,4.3685,13.48,-0.209606,-0.087408,00111100,1,98.4127,12
62966,60640,2005/12/17 11:00:41,42.4461,4.3514,13.48,-0.19406,-0.052291,00111100,1,100,12
62966,60640,2005/12/17 12:00:38,42.4433,4.3463,13.4,-0.11634,-0.086557,00111100,1,98.4127,12
62966,60640,2005/12/17 13:00:12,42.4375,4.3409,13.4,-0.123985,-0.180451,00111100,1,100,12
62966,60640,2005/12/17 14:00:37,42.4330,4.3358,13.4,-0.115459,-0.138035,00111100,1,100,12
62966,60640,2005/12/17 18:01:14,42.4034,4.3076,13.32,-0.160345,-0.227982,00111100,1,100,12
62966,60640,2005/12/18 00:01:05,42.3764,4.2323,13.24,-0.286419,-0.139052,00111100,1,98.4127,12
62966,60640,2005/12/18 04:00:21,42.3747,4.1997,13.24,-0.186536,-0.013167,00111100,1,100,12
62966,60640,2005/12/18 06:00:59,42.3751,4.1967,13.24,-0.034048,0.006145,00111100,1,100,12
62966,60640,2005/12/18 07:00:12,42.3724,4.1947,13.24,-0.046241,-0.084499,00111100,4,100,12
62966,60640,2005/12/18 08:01:02,42.3683,4.1933,13.24,-0.03151,-0.124904,00111100,3,100,12
62966,60640,2005/12/18 09:00:11,42.3649,4.1932,13.24,-0.002315,-0.106527,00111100,1,98.4127,12
62966,60640,2005/12/18 12:00:43,42.3455,4.1846,13.24,-0.065239,-0.199149,00111100,3,98.4127,12
62966,60640,2005/12/18 13:00:15,42.3387,4.1777,13.24,-0.158762,-0.211681,00111100,3,100,12
62966,60640,2005/12/18 15:00:12,42.3284,4.1602,13.24,-0.199873,-0.159137,00111100,1,87.3016,12
62966,60640,2005/12/18 19:00:11,42.3277,4.1308,13.24,-0.16785,-0.005406,00111100,1,68.254,12
62966,60640,2005/12/18 21:00:40,42.3313,4.1274,13.16,-0.038663,0.055374,00111100,1,85.7143,12
62966,60640,2005/12/18 23:00:17,42.3312,4.1302,13.24,0.03207,-0.001549,00111100,1,74.6032,12
62966,60640,2005/12/19 01:00:12,42.3285,4.1371,13.16,0.078834,-0.041727,00111100,4,80.9524,12
62966,60640,2005/12/19 02:00:11,42.3258,4.1414,13.16,0.09822,-0.083419,00111100,1,63.4921,12
62966,60640,2005/12/19 04:00:15,42.3149,4.1459,13.16,0.051357,-0.168243,00111100,1,58.7302,12
62966,60640,2005/12/19 06:00:41,42.2993,4.1407,13.16,-0.059177,-0.240055,00111100,1,41.2698,12
62966,60640,2005/12/19 09:00:41,42.2826,4.1159,13.16,-0.188882,-0.17194,00111100,4,33.3333,12
62966,60640,2005/12/19 10:00:13,42.2809,4.1061,13.16,-0.225705,-0.05292,00111100,3,15.873,12
62966,60640,2005/12/19 11:00:14,42.2806,4.0977,13.16,-0.191906,-0.009264,00111100,3,42.8571,12
62966,60640,2005/12/19 12:00:41,42.2836,4.0916,13.16,-0.138358,0.091973,00111100,1,9.52381,12
62966,60640,2005/12/19 13:00:12,42.2876,4.0895,13.16,-0.048376,0.124553,00111100,1,9.52381,12
62966,60640,2005/12/19 16:00:12,42.2921,4.0990,13.16,0.072355,0.046331,00111100,1,14.2857,12
62966,60640,2005/12/19 17:00:11,42.2892,4.1037,13.08,0.107419,-0.089599,00111100,1,14.2857,12
62966,60640,2005/12/19 18:00:41,42.2837,4.1088,13.16,0.115573,-0.168477,00111100,1,0,12
62966,60640,2005/12/19 19:00:12,42.2763,4.1124,13.08,0.082937,-0.230424,00111100,4,7.93651,12
62966,60640,2005/12/19 21:00:41,42.2582,4.1146,13.08,0.025042,-0.27841,00111100,1,11.1111,12
62966,60640,2005/12/19 22:00:07,42.2496,4.1128,13.08,-0.041544,-0.268165,00111100,1,25.3968,12